RH
82 86 93 98 98 100 100 100 99 100 98 73 48 39 34 36 38 40 42 44 45 44 42 39 35 28 18
71 85 90 99 99 100 100 100 100 96 86 62 59 50 34 33 35 36 39 41 45 45 45 42 38 32 18
62 71 82 90 97 100 99 100 98 78 64 70 72 56 42 31 30 33 36 38 42 46 46 43 41 36 20
67 64 72 81 90 83 97 99 100 88 66 67 65 66 58 46 28 26 32 36 38 45 48 46 46 40 22
78 69 70 82 85 88 91 94 97 90 81 70 71 60 56 46 37 24 27 33 36 43 48 52 55 48 24
74 71 64 68 78 79 83 98 98 85 92 88 72 65 61 52 41 26 26 30 35 40 48 67 61 48 25
42 57 64 58 61 72 70 63 64 72 76 94 77 64 65 56 44 30 26 29 34 39 49 74 61 45 24
50 47 52 55 54 50 56 77 87 72 74 67 58 53 58 57 46 35 31 30 33 38 50 75 72 42 23
56 62 65 68 69 63 65 66 77 70 70 72 63 51 48 52 48 40 38 33 34 40 55 82 77 39 22
62 70 73 72 74 70 62 49 54 62 58 72 62 57 46 36 38 42 43 37 34 43 71 88 64 35 19
56 59 57 66 65 66 46 34 34 38 43 51 48 52 46 34 33 38 43 39 36 53 92 90 52 32 16
58 52 45 43 41 34 28 28 34 43 45 43 33 36 38 38 36 37 40 38 42 79 97 80 44 25 14
58 47 31 28 30 28 28 27 32 37 40 39 40 38 39 42 39 38 43 47 63 94 96 59 35 18 12
60 45 32 30 29 27 25 24 28 32 34 39 42 43 41 42 43 38 45 64 86 94 70 42 25 15 10
66 50 38 30 28 28 27 26 27 28 31 38 45 47 44 44 41 40 51 66 94 97 71 39 19 13 10
69 63 50 37 29 30 29 26 27 29 33 38 43 48 47 45 44 47 62 74 99 95 82 30 18 11 10
73 70 63 54 45 37 33 28 29 34 38 43 46 48 45 46 49 48 65 96 98 96 80 57 16 11 11
Wind_Speed
49 44 41 36 34 32 30 28 27 27 26 21 15 14 13 12 10 9 9 9 10 12 14 15 15 16 17
47 48 44 40 36 33 32 30 28 27 26 21 19 17 16 14 14 12 11 10 11 13 14 15 15 16 16
38 44 44 43 40 36 33 32 30 28 24 23 22 21 18 17 16 15 13 12 12 12 14 15 16 16 16
32 37 42 43 42 40 39 36 33 31 29 27 25 24 21 20 18 16 15 14 13 13 14 15 16 15 16
36 37 42 46 49 44 42 39 36 35 33 31 30 27 25 22 19 17 17 15 14 14 14 15 17 16 16
41 40 41 42 43 46 46 42 39 40 37 34 31 28 26 23 19 18 18 17 14 15 14 16 16 16 16
39 42 41 39 39 45 47 46 45 38 38 37 34 30 27 24 22 20 20 18 16 15 14 16 16 16 16
30 33 35 34 32 33 41 43 43 40 36 29 31 30 28 26 25 23 22 20 17 15 14 16 16 15 16
30 31 29 28 31 34 36 39 42 41 37 33 30 25 26 27 26 25 23 21 17 15 15 16 15 14 15
34 31 28 28 29 27 27 32 36 36 38 37 34 28 25 26 26 27 26 22 18 15 14 15 14 13 14
31 31 30 29 28 29 27 27 28 31 23 29 33 31 28 13 18 27 26 22 18 15 14 14 13 12 12
36 35 33 32 30 28 26 24 23 24 24 24 20 22 28 28 21 17 22 21 18 14 15 13 12 11 12
39 36 32 32 30 28 27 26 24 24 25 25 23 17 18 23 24 17 17 19 16 14 13 12 11 10 11
36 36 35 35 33 31 30 28 27 27 26 25 23 22 20 20 21 19 16 13 11 11 11 11 9 10 11
38 38 39 38 36 34 31 29 29 28 29 28 27 25 23 19 21 20 18 16 13 10 10 10 9 10 11
43 40 40 40 37 35 34 33 31 30 30 29 30 29 26 24 22 20 20 16 13 11 10 9 9 10 11
45 43 40 39 39 38 37 36 34 32 31 30 31 31 29 28 24 24 19 16 14 12 12 9 10 10 10
Wind_Direction
207 209 206 205 204 204 205 205 208 213 217 223 225 240 250 257 268 277 293 311 327 336 345 348 348 346 346
207 208 210 208 206 208 207 210 213 221 224 224 230 243 252 259 264 272 283 299 315 324 339 344 343 343 342
209 210 212 214 211 210 212 214 219 227 230 229 234 244 251 257 262 268 277 288 301 315 328 339 337 340 339
216 213 213 213 217 213 210 215 219 228 229 230 237 246 251 255 261 264 272 280 292 305 317 330 333 337 336
212 212 213 212 213 214 215 217 220 225 229 230 235 242 249 256 259 263 267 273 284 296 311 324 331 332 331
215 216 216 217 216 218 216 213 217 225 229 234 238 242 249 255 259 259 261 270 277 289 307 318 324 325 326
218 219 219 221 217 219 223 224 225 225 227 233 238 242 247 251 255 256 259 266 274 285 297 311 318 319 321
232 234 231 230 230 234 228 225 228 232 234 239 245 246 247 249 251 254 256 261 267 276 288 308 310 312 315
225 230 236 235 234 231 227 228 230 234 236 239 243 244 246 247 248 250 253 257 263 267 285 303 301 305 312
217 219 225 227 228 234 239 237 232 233 236 234 240 240 243 244 243 243 245 249 255 260 283 289 292 302 310
215 213 218 217 217 218 224 234 233 234 235 232 238 236 233 239 237 237 238 239 242 257 288 280 288 300 308
209 211 213 212 212 213 219 225 224 229 237 236 238 237 236 238 240 240 232 229 232 257 273 273 282 294 305
211 210 214 214 213 213 214 219 219 221 224 226 232 234 235 236 238 237 223 224 226 259 262 265 276 288 301
213 213 213 213 213 218 219 220 220 220 222 222 224 225 227 226 228 229 220 211 233 250 248 256 267 282 294
214 214 216 215 216 218 220 222 225 225 225 221 218 217 217 221 224 220 221 225 252 246 241 253 264 277 291
214 216 219 221 220 222 223 224 226 225 226 224 220 213 211 213 214 218 222 234 249 235 236 249 265 277 291
218 219 219 222 224 225 225 224 223 224 226 225 221 218 213 208 211 216 223 244 239 226 228 235 264 278 296